{"data":{"norad_id":49283,"epoch":"2026-05-25T02:53:30.356736Z","epoch_age_seconds":71430,"freshness":"FRESH","line1":"1 49283U 21090E   26145.12049024  .00000221  00000+0  51210-3 0  9994","line2":"2 49283  87.9175 279.0332 0002644  90.7410 269.4027 13.20770793226782","mean_motion":13.20770793,"eccentricity":0.0002644,"inclination_deg":87.9175,"raan_deg":279.0332,"arg_perigee_deg":90.741,"mean_anomaly_deg":269.4027,"bstar":0.0005121,"rev_number":22678,"period_min":109.02724436609,"perigee_km":1179.7784233726,"apogee_km":1183.7761060357,"semimajor_km":7559.9142647041,"source":"CELESTRAK","updated_at":"2026-05-25T13:38:22.519890Z"}}